Location: Newark
(48.2308°N, 120.8549°W)
Time: 23:15:59
(UTC+00:00)

Transit 2A Rocket - Pass Details

Date: 03 June 2020
Orbit: 584 x 919 km, 66.7° (Epoch: 10 July)

Event Time Altitude Azimuth Distance (km) Brightness Sun altitude
Rises 11:58:57 0° 325° (NW) 3,447 8.4 -1.7°
Reaches altitude 10° 12:01:57 10° 340° (NNW) 2,551 7.9 -1.3°
Maximum altitude 12:06:37 23° 31° (NNE) 1,833 8.1 -0.7°
Drops below altitude 10° 12:11:23 10° 82° (E) 2,615 9.0 0.0°
Sets 12:14:30 0° 97° (E) 3,555 9.3 0.4°
